Regional Weather Roundup
Issued by NWS

Home | Current Version | Previous Version | Graphics & Text | Print | Product List | Glossary On
Versions: 1 2 3 4 5 6 7 8 9 10 11 12 13 14 15 16 17 18 19 20 21 22 23 24 25 26 27 28 29 30 31 32 33 34 35 36 37 38 39 40 41 42 43 44 45 46 47 48 49 50
000
ASUS43 KMKX 221511
RWRWI

WISCONSIN REGIONAL WEATHER ROUNDUP
NATIONAL WEATHER SERVICE MILWAUKEE/SULLIVAN WI
1000 AM CDT WED MAR 22 2017

NOTE: "FAIR" INDICATES FEW OR NO CLOUDS BELOW 12,000 FEET WITH NO
SIGNIFICANT WEATHER AND/OR OBSTRUCTIONS TO VISIBILITY.

WIZ001-002-006>008-014>016-023>028-221600-
NORTHWEST WISCONSIN

CITY           SKY/WX    TMP DP  RH WIND       PRES   REMARKS
SUPERIOR ARPT  SUNNY     26   7  44 SE5       30.59S WCI  20
ASHLAND        SUNNY     24  10  55 SE7       30.59F WCI  16
HAYWARD        SUNNY     23   7  50 SE8       30.56R WCI  14
SIREN          SUNNY     26   8  46 SE7       30.57R WCI  19
CUMBERLAND     SUNNY     25   7  46 SE9       30.55S WCI  15
RICE LAKE      SUNNY     25   9  49 CALM      30.58R
CHETEK         SUNNY     26   8  46 S10       30.57S WCI  16
LADYSMITH      SUNNY     25   7  47 SE7       30.58S WCI  17
EAU CLAIRE     SUNNY     27   6  41 S12       30.58R WCI  17
MENOMONIE      SUNNY     28   9  43 SE13      30.58R WCI  18
NEW RICHMOND   SUNNY     28   8  43 SE9       30.56S WCI  19
OSCEOLA        SUNNY     28   9  45 SE13      30.59S WCI  17
$$

WIZ003>005-009-010-017-018-221600-
NORTH CENTRAL WISCONSIN

CITY           SKY/WX    TMP DP  RH WIND       PRES   REMARKS
MANITOWISH WTR SUNNY     19   7  59 SE6       30.54S WCI  11
ARBOR VITAE    SUNNY     21   9  58 SE6       30.53S WCI  14
WOODRUFF       SUNNY     21   9  58 SE6       30.53S WCI  14
RHINELANDER    SUNNY     20   7  57 E8        30.54F WCI  10
EAGLE RIVER    SUNNY     19   5  56 CALM      30.54S
LAND O LAKES   SUNNY     19   8  61 N3        30.55S
PHILLIPS       SUNNY     21   8  56 SE7       30.54S WCI  12
TOMAHAWK       SUNNY     22   8  55 CALM      30.56S
MEDFORD        SUNNY     21   6  51 E7        30.55R WCI  13
MERRILL        SUNNY     22   8  54 SE6       30.57S WCI  15
$$

WIZ029-030-035-036-043>047-221600-
CENTRAL WISCONSIN

CITY           SKY/WX    TMP DP  RH WIND       PRES   REMARKS
WAUSAU         SUNNY     23   8  52 E8        30.56S WCI  14
MOSINEE        SUNNY     21   9  58 E9        30.58S WCI  11
MARSHFIELD     SUNNY     24   7  48 E9        30.56R WCI  14
STEVENS POINT  SUNNY     22   6  51 SE8       30.60S WCI  12
WAUPACA        SUNNY     28   8  44 NE7       30.62R WCI  20
WAUTOMA        SUNNY     25  11  55 E10         N/A  WCI  15
WISC RAPIDS    SUNNY     25   7  46 E12       30.61R WCI  14
CAMP DOUGLAS   SUNNY     27   7  43 E12       30.59R WCI  16
$$

WIZ011>013-019>022-031-037>040-048>050-221600-
NORTHEAST WISCONSIN

CITY           SKY/WX    TMP DP  RH WIND       PRES   REMARKS
ANTIGO         SUNNY     20   7  56 E3        30.55F
SHAWANO        SUNNY     26  11  53 NE7       30.63S WCI  18
OCONTO         MOSUNNY   24  10  55 E3        30.63R
STURGEON BAY   PTSUNNY   24  12  60 VRB7      30.62F WCI  16
GREEN BAY      MOSUNNY   26  15  63 NE13      30.62R WCI  15
MANITOWOC      PTSUNNY   25  14  63 VRB6      30.62R WCI  18
APPLETON       MOSUNNY   25   9  50 E7        30.59R WCI  17
CLINTONVILLE   SUNNY     27   9  46 E8        30.61S WCI  18
OSHKOSH        SUNNY     25  12  58 E8        30.61R WCI  16
$$

WIZ032>034-041-042-053>061-221600-
SOUTHWEST WISCONSIN

CITY           SKY/WX    TMP DP  RH WIND       PRES   REMARKS
LA CROSSE      SUNNY     29   6  38 SE8       30.60S WCI  21
SPARTA         SUNNY     28   7  42 SE12      30.60S WCI  18
VIROQUA        SUNNY     26   7  44 SE13      30.56R WCI  15
BOSCOBEL       SUNNY     30   6  36 E7G16     30.61R WCI  23
PRAIRIE DU CHI SUNNY     29   6  37 E9        30.60R WCI  21
PLATTEVILLE    SUNNY     29  13  53 E10       30.58S WCI  19
$$

WIZ056-057-062-063-064-067-068-221600-
SOUTH CENTRAL WISCONSIN

CITY           SKY/WX    TMP DP  RH WIND       PRES   REMARKS
REEDSBURG      SUNNY     26   7  45 E7        30.61R WCI  18
BARABOO/DELLS  SUNNY     26   7  45 E10       30.60R WCI  16
LONE ROCK      SUNNY     27   6  41 SE12      30.62R WCI  17
MINERAL POINT  SUNNY     30  10  43 E9G16     30.57R WCI  22
MADISON        SUNNY     26   8  46 NE6       30.60R WCI  19
MIDDLETON      SUNNY     28   8  42 E6        30.61R WCI  22
WATERTOWN      SUNNY     28  14  56 E10       30.59R WCI  18
MONROE         SUNNY     28  10  47 E9        30.57R WCI  20
JANESVILLE     SUNNY     30  12  47 NE8       30.58R WCI  23
$$

WIZ051-052-058>065-066-070>072-221600-
SOUTHEAST WISCONSIN

CITY           SKY/WX    TMP DP  RH WIND       PRES   REMARKS
MILWAUKEE      CLOUDY    30  16  56 NE13      30.59R WCI  20
WAUKESHA       PTSUNNY   27  12  54 NE8       30.60R WCI  18
MILWAUKEE/TIMM CLOUDY    27  10  50 N9        30.60R WCI  17
RACINE         CLOUDY    30  16  56 NE12      30.61R WCI  20
KENOSHA        CLOUDY    29  16  58 E8G20     30.59R WCI  21
FOND DU LAC    MOSUNNY   26  10  50 E9        30.61R WCI  17
SHEBOYGAN      CLOUDY    26  14  60 N10       30.60R WCI  16
WEST BEND      CLOUDY    27  14  59 NE9       30.60R WCI  17
JUNEAU         SUNNY     26  13  57 NE7       30.61R WCI  18
$$

LSZ147-162-221600-
LAKE SUPERIOR

STATION/POSITION TIME  TEMP    WIND        PRES    WAVE
                       AIR SEA DIR/SP/G            HT/PER
                 (UTC) (F)     (DEG/KT/KT) (MB)    (FT/S)
DEVILS ISLAND    1500   24     110/  8/ 12 1037.4F
PORT WING        1440   26     130/  5/  9 1035.6F
SAXON HARBOR     1430   24     160/  6/  8 1035.9F
$$

LMZ867-665-643>646-221600-
LAKE MICHIGAN

STATION/POSITION TIME  TEMP    WIND        PRES    WAVE
                       AIR SEA DIR/SP/G            HT/PER
                 (UTC) (F)     (DEG/KT/KT) (MB)    (FT/S)
CHAMBERS ISLAND  1440   21      30/  8/ 10 1036.6R
NORTHPORT PIER   1440   23      50/  6/  9 1036.9S
SISTER BAY       1420   28      40/  8/ 10   N/A
KEWAUNEE LAKESHO 1448   24      30/  7/ 12 1036.0R
SHEBOYGAN LAKESH 1500   25      10/ 13/ 15 1037.3R
PORT WASHINGTON  1430   27      40/ 10/ 14 1036.9R
MILWAUKEE LAKESH 1450   28      50/ 14/ 16   N/A
KENOSHA   LAKESH 1500   29      50/ 14/ 16 1035.9
$$

TC  - TEMPERATURE IN CELSIUS
VSB - VISIBILITY IN STATUTE MILES
WCI - WIND CHILL INDEX
HX  - HEAT INDEX





USA.gov is the U.S. government's official web portal to all federal, state and local government web resources and services.